Content
SEND FEEDBACK

Daily
Averages
Monthly
Summary
United States of America

COOL, CALIFORNIA


Home > North America > United States > California
Elevation: 1530 feet     Latitude: 38 53N     Longitude: 121 01W

WEATHER
 
SELECT A DAY
Number of Records: 291,370;   Date Range: 8/19/02 - 7/27/14
 
SHARE

PRINT THIS DATA

[ ← Previous Day ]
WEATHER ALMANAC - JANUARY 23, 2013
[ Next Day → ]
[ °C ]   °F
Weather ElementAverageHighLow
Temperature54.4 °F62.6 °F (1:35 pm)48.2 °F (12:35 am)
Dewpoint34.8 °F48.2 °F (6:15 pm)23 °F (4:55 am)
Humidity51.7 %88 % (6:15 pm)27 % (10:15 am)
Barometer30.06 in30.10 in (4:55 pm)30.00 in (4:35 am)
Wind Speed4.4 mph12.7 mph (9:55 am)
Weather ElementAverage
Visibility9.7 mi
Wind DirectionE (90.2 °)

Weather ElementTotal
Precipitation0.05 in
Heating Degree Days9.6 (Base 65)
Growing Degree Days5.4 (Base 50)
Averaged from 62 records on January 23, 2013
WEATHER CONDITIONS BREAKOUT
WIND DIRECTION BREAKOUT
WEATHER BY HOUR - JANUARY 23, 2013
[ °C ]   °F
Local TimeTemperatureDewpointHumidityBarometerVisibilityWind DirectionWind SpeedGust SpeedPrecipitationEventsConditions
12:35 AM48.2 °F32.0 °F54 %30.07 in10.0 miEast (90°)3.5 mphClear
12:55 AM50.0 °F30.2 °F47 %30.07 in10.0 miEast (100°)5.8 mphClear
1:15 AM51.8 °F32.0 °F47 %30.06 in10.0 miESE (110°)4.6 mphClear
1:35 AM51.8 °F30.2 °F44 %30.06 in10.0 miCalmClear
2:15 AM48.2 °F30.2 °F50 %30.06 in10.0 miEast (100°)3.5 mphClear
2:35 AM48.2 °F30.2 °F50 %30.05 in10.0 miEast (90°)4.6 mphClear
3:15 AM48.2 °F30.2 °F50 %30.05 in10.0 miCalmClear
3:35 AM53.6 °F28.4 °F38 %30.04 in10.0 miEast (100°)3.5 mphClear
3:55 AM51.8 °F28.4 °F41 %30.02 in10.0 miESE (110°)5.8 mphPartly Cloudy
4:15 AM53.6 °F26.6 °F35 %30.01 in10.0 miEast (100°)8.1 mphClear
4:35 AM53.6 °F24.8 °F33 %30.00 in10.0 miEast (90°)9.2 mphClear
4:55 AM55.4 °F23.0 °F29 %30.00 in10.0 miSE (130°)4.6 mphClear
5:15 AM55.4 °F23.0 °F29 %30.01 in10.0 miESE (110°)3.5 mphClear
5:35 AM55.4 °F23.0 °F29 %30.01 in10.0 miSE (140°)3.5 mphClear
5:55 AM51.8 °F28.4 °F41 %30.02 in10.0 miWest (270°)3.5 mphClear
6:15 AM51.8 °F28.4 °F41 %30.02 in10.0 miNNE (30°)3.5 mphClear
6:35 AM51.8 °F26.6 °F38 %30.00 in10.0 miEast (90°)6.9 mphClear
6:55 AM51.8 °F28.4 °F41 %30.00 in10.0 miEast (100°)5.8 mphClear
7:15 AM53.6 °F26.6 °F35 %30.00 in10.0 miESE (110°)10.4 mphClear
7:35 AM53.6 °F24.8 °F33 %30.01 in10.0 miESE (120°)3.5 mphClear
7:55 AM53.6 °F26.6 °F35 %30.02 in10.0 miEast (100°)6.9 mphClear
8:15 AM55.4 °F26.6 °F33 %30.01 in10.0 miEast (100°)10.4 mphClear
9:15 AM55.4 °F28.4 °F36 %30.03 in10.0 miESE (110°)10.4 mphClear
9:35 AM55.4 °F28.4 °F36 %30.03 in10.0 miEast (100°)11.5 mphPartly Cloudy
9:55 AM57.2 °F28.4 °F33 %30.03 in10.0 miEast (100°)12.7 mphPartly Cloudy
10:15 AM60.8 °F26.6 °F27 %30.05 in10.0 miSouth (170°)3.5 mphClear
10:35 AM59.0 °F28.4 °F31 %30.06 in10.0 miSouth (190°)4.6 mphClear
10:55 AM57.2 °F32.0 °F38 %30.08 in10.0 miCalmClear
11:15 AM59.0 °F30.2 °F34 %30.08 in10.0 miCalmClear
11:55 AM59.0 °F30.2 °F34 %30.07 in10.0 miSSE (150°)3.5 mphPartly Cloudy
12:15 PM60.8 °F28.4 °F29 %30.07 in10.0 miSouth (180°)5.8 mphPartly Cloudy
12:35 PM60.8 °F28.4 °F29 %30.06 in10.0 miSE (130°)4.6 mphClear
12:55 PM60.8 °F30.2 °F31 %30.06 in10.0 miCalmClear
1:35 PM62.6 °F32.0 °F32 %30.05 in10.0 miCalmMostly Cloudy
1:55 PM62.6 °F32.0 °F32 %30.05 in10.0 miCalmScattered Clouds
2:15 PM62.6 °F32.0 °F32 %30.05 in10.0 miSW (230°)5.8 mphPartly Cloudy
2:35 PM62.6 °F32.0 °F32 %30.05 in10.0 miSouth (190°)4.6 mphClear
2:55 PM60.8 °F30.2 °F31 %30.05 in10.0 miSSW (210°)4.6 mphClear
3:15 PM59.0 °F32.0 °F36 %30.06 in10.0 miSW (230°)6.9 mphPartly Cloudy
3:35 PM57.2 °F33.8 °F41 %30.06 in10.0 miWSW (240°)6.9 mphClear
4:15 PM53.6 °F39.2 °F58 %30.09 in5.0 miCalmMostly Cloudy
4:55 PM51.8 °F42.8 °F71 %30.10 in3.0 miESE (110°)5.8 mph0.02 inMostly Cloudy
5:15 PM50.0 °F44.6 °F82 %30.09 in5.0 miENE (70°)5.8 mph0.01 inOvercast
5:35 PM51.8 °F46.4 °F82 %30.08 in9.0 miEast (90°)6.9 mph0.01 inOvercast
5:55 PM51.8 °F46.4 °F82 %30.08 in10.0 miEast (90°)4.6 mph0.01 inMostly Cloudy
6:15 PM51.8 °F48.2 °F88 %30.08 in10.0 miEast (90°)5.8 mphMostly Cloudy
6:35 PM51.8 °F48.2 °F88 %30.09 in10.0 miEast (100°)6.9 mphMostly Cloudy
6:55 PM53.6 °F46.4 °F77 %30.09 in10.0 miEast (100°)4.6 mphMostly Cloudy
7:15 PM53.6 °F46.4 °F77 %30.09 in10.0 miEast (90°)6.9 mphOvercast
7:35 PM51.8 °F46.4 °F82 %30.09 in10.0 miENE (70°)3.5 mphMostly Cloudy
7:55 PM53.6 °F46.4 °F77 %30.09 in10.0 miENE (60°)3.5 mphMostly Cloudy
8:15 PM53.6 °F46.4 °F77 %30.09 in10.0 miENE (60°)3.5 mphScattered Clouds
8:35 PM53.6 °F46.4 °F77 %30.09 in10.0 miCalmScattered Clouds
8:55 PM53.6 °F46.4 °F77 %30.10 in10.0 miNE (40°)3.5 mphMostly Cloudy
9:15 PM51.8 °F46.4 °F82 %30.09 in10.0 miCalmMostly Cloudy
9:35 PM51.8 °F46.4 °F82 %30.09 in10.0 miCalmOvercast
9:55 PM53.6 °F44.6 °F72 %30.10 in10.0 miCalmOvercast
10:15 PM53.6 °F44.6 °F72 %30.09 in10.0 miNE (50°)4.6 mphOvercast
10:55 PM51.8 °F46.4 °F82 %30.10 in10.0 miNorth (10°)3.5 mphMostly Cloudy
11:15 PM50.0 °F46.4 °F87 %30.10 in10.0 miEast (80°)3.5 mphOvercast
11:35 PM51.8 °F46.4 °F82 %30.10 in10.0 miENE (60°)3.5 mphOvercast
11:55 PM51.8 °F46.4 °F82 %30.09 in10.0 miCalmOvercast
Hourly data recorded from KAUN, located miles away from Cool, California







STORIES FROM OUR PARTNERS